Location: Edisto_Beach
(32.4790°N, 80.3350°W)
Time: 23:48:12
(UTC-04:00)

Amateur Radio Satellites - All Passes

Search period start: 22 October 2014 23:18
Search period end: 23 October 2014 23:18
Location: Edisto_Beach, 32.4790°N, 80.3350°W

Satellite Date Start Highest point End Downlink Frequencies (MHz)
Time Altitude Azimuth
Oscar 11 22 Oct 23:25:29 23:28:23 17° 265° (W) 23:31:17 145.825 FM, Beacon 2401.500 USB
SO-50 22 Oct 23:28:41 23:33:34 89° 62° (ENE) 23:38:27 436.795 FM
KITSAT 1 22 Oct 23:54:20 00:01:41 40° 252° (WSW) 00:09:01 435.175 FM
ZACube-1 23 Oct 00:08:30 00:11:12 15° 266° (W) 00:13:54 437.345 MHz
MaSat-1 23 Oct 00:28:46 00:33:06 72° 111° (ESE) 00:37:05 437.345 MHz
RS-15 23 Oct 01:01:11 01:10:29 31° 314° (NW) 01:19:49 29.354 - 29.394 USB, Beacon 29.352 USB
UOSAT-12 23 Oct 01:04:48 01:09:30 75° 61° (ENE) 01:14:06 437.025 FM, 437.400 FM
JAS-1B 23 Oct 01:22:06 01:23:20 10° 94° (E) 01:24:36 435.800 - 435.900 CW/SSB
Oscar 19 23 Oct 02:21:28 02:26:11 37° 99° (E) 02:30:53 437.125 CW, 437.150 USB
AO-27 23 Oct 02:34:42 02:38:22 19° 95° (E) 02:41:59 436.795 MHz FM
Oscar 16 23 Oct 03:06:34 03:11:40 72° 285° (WNW) 03:16:45 437.025 USB, Beacon 2401.1428
JAS-1B 23 Oct 03:07:20 03:14:09 83° 104° (ESE) 03:22:23 435.800 - 435.900 CW/SSB
AO-Echo 23 Oct 03:18:34 03:23:53 76° 102° (ESE) 03:29:11 ?
Uribyol 2 23 Oct 03:22:17 03:27:28 64° 102° (ESE) 03:32:35 436.500 FM
PCSat 23 Oct 03:23:17 03:26:02 14° 104° (ESE) 03:28:48 145.825 MHz
ITAMSAT 1 23 Oct 03:27:44 03:32:57 69° 102° (ESE) 03:38:07 435.822 SSB
Gurwin Techsat 1B 23 Oct 03:35:22 03:40:21 40° 99° (E) 03:45:18 435.225 FM
TMSAT-1 23 Oct 03:48:01 03:52:57 39° 99° (E) 03:57:51 436.925 FM
Oscar 19 23 Oct 04:01:30 04:05:14 21° 292° (WNW) 04:08:57 437.125 CW, 437.150 USB
AO-27 23 Oct 04:13:05 04:17:57 41° 288° (WNW) 04:22:48 436.795 MHz FM
Sapphire 23 Oct 04:40:41 04:46:03 79° 113° (ESE) 04:51:29 437.095 MHz 1200 baud AX-25 AFSK
AO-Echo 23 Oct 05:00:20 05:01:56 11° 296° (WNW) 05:03:32 ?
JAS-1B 23 Oct 05:00:44 05:04:15 15° 295° (WNW) 05:08:03 435.800 - 435.900 CW/SSB
Uosat F 23 Oct 05:02:20 05:06:35 27° 97° (E) 05:10:48 435.120 FM
PCSat 23 Oct 05:03:34 05:08:52 59° 297° (WNW) 05:14:13 145.825 MHz
Uribyol 2 23 Oct 05:04:06 05:06:19 13° 296° (WNW) 05:08:31 436.500 FM
ITAMSAT 1 23 Oct 05:09:51 05:11:47 12° 296° (WNW) 05:13:43 435.822 SSB
Gurwin Techsat 1B 23 Oct 05:16:08 05:19:59 21° 293° (WNW) 05:23:49 435.225 FM
JAS-2 23 Oct 05:20:21 05:24:42 16° 90° (E) 05:29:01 435.800 - 435.900 CW/SSB, 435.910 FM
AO-7 23 Oct 05:28:06 05:36:22 65° 104° (ESE) 05:44:36 29.400 - 29.500 MHz
TMSAT-1 23 Oct 05:28:39 05:32:34 21° 292° (WNW) 05:36:27 436.925 FM
OPAL 23 Oct 05:36:47 05:41:56 70° 73° (ENE) 05:47:02 ?
RS-15 23 Oct 05:43:04 05:48:21 14° 28° (NNE) 05:53:42 29.354 - 29.394 USB, Beacon 29.352 USB
Hamsat 23 Oct 05:58:56 05:59:42 10° 93° (E) 06:00:28 145.90 MHz
Sapphire 23 Oct 06:27:39 06:30:04 13° 310° (NW) 06:32:30 437.095 MHz 1200 baud AX-25 AFSK
Uosat F 23 Oct 06:41:00 06:45:14 28° 291° (WNW) 06:49:27 435.120 FM
JAS-2 23 Oct 07:02:27 07:10:18 85° 284° (WNW) 07:18:04 435.800 - 435.900 CW/SSB, 435.910 FM
STRAND 1 23 Oct 07:18:08 07:23:12 67° 75° (ENE) 07:28:18 ?
OPAL 23 Oct 07:20:20 07:21:09 10° 266° (W) 07:21:58 ?
AO-7 23 Oct 07:22:09 07:28:27 25° 300° (WNW) 07:34:47 29.400 - 29.500 MHz
Hamsat 23 Oct 07:31:48 07:35:49 46° 285° (WNW) 07:39:51 145.90 MHz
RS-15 23 Oct 07:53:17 08:04:10 52° 55° (NE) 08:15:27 29.354 - 29.394 USB, Beacon 29.352 USB
Saudisat 1A 23 Oct 08:25:08 08:29:31 87° 298° (WNW) 08:33:56 436.775 MHz
SO-67 23 Oct 08:30:25 08:33:51 71° 282° (WNW) 08:37:16 435.3500 MHz FM
PANSAT 23 Oct 08:35:40 08:38:58 28° 165° (SSE) 08:42:16 not established
JAS-2 23 Oct 08:50:07 08:54:12 15° 299° (WNW) 08:58:19 435.800 - 435.900 CW/SSB, 435.910 FM
STRAND 1 23 Oct 09:01:37 09:02:45 11° 268° (W) 09:03:53 ?
HO-68 23 Oct 10:05:26 10:12:32 59° 102° (ESE) 10:19:35 435.675 MHz FM
RS-15 23 Oct 10:06:03 10:16:11 40° 253° (WSW) 10:26:45 29.354 - 29.394 USB, Beacon 29.352 USB
PANSAT 23 Oct 10:15:09 10:18:49 45° 178° (S) 10:22:29 not established
MaSat-1 23 Oct 10:20:12 10:22:29 29° 64° (ENE) 10:24:37 437.345 MHz
UKube-1 23 Oct 10:33:04 10:37:07 37° 99° (E) 10:41:09 145.840 MHz, 145.915 MHz
FUNcube-1 23 Oct 11:09:40 11:13:34 35° 98° (E) 11:17:22 145.950 - 145.970 MHz USB
Oscar 11 23 Oct 11:16:01 11:20:17 67° 284° (WNW) 11:24:33 145.825 FM, Beacon 2401.500 USB
HO-68 23 Oct 11:54:22 11:59:39 23° 297° (WNW) 12:04:55 435.675 MHz FM
PANSAT 23 Oct 11:55:11 11:58:43 35° 190° (S) 12:02:14 not established
ZACube-1 23 Oct 12:00:35 12:04:41 49° 285° (WNW) 12:08:42 437.345 MHz
UKube-1 23 Oct 12:10:25 12:12:57 15° 292° (WNW) 12:15:29 145.840 MHz, 145.915 MHz
KITSAT 1 23 Oct 12:21:35 12:29:16 50° 110° (ESE) 12:36:56 435.175 FM
ISS 23 Oct 12:22:31 12:24:46 17° 127° (SE) 12:27:01 145.800 FM
Oscar 16 23 Oct 12:45:06 12:45:19 10° 63° (ENE) 12:45:32 437.025 USB, Beacon 2401.1428
FUNcube-1 23 Oct 12:47:16 12:49:35 15° 292° (WNW) 12:51:53 145.950 - 145.970 MHz USB
Oscar 19 23 Oct 13:33:57 13:38:34 34° 71° (ENE) 13:43:11 437.125 CW, 437.150 USB
Sapphire 23 Oct 13:33:59 13:38:22 24° 56° (NE) 13:42:44 437.095 MHz 1200 baud AX-25 AFSK
PANSAT 23 Oct 13:36:08 13:38:25 15° 202° (SSW) 13:40:42 not established
SO-50 23 Oct 13:39:09 13:43:36 87° 118° (ESE) 13:48:11 436.795 FM
AO-27 23 Oct 13:48:47 13:52:22 19° 67° (ENE) 13:55:58 436.795 MHz FM
JAS-1B 23 Oct 13:49:39 13:55:26 42° 72° (ENE) 14:00:45 435.800 - 435.900 CW/SSB
PCSat 23 Oct 13:56:12 14:01:19 41° 60° (ENE) 14:06:24 145.825 MHz
ISS 23 Oct 13:58:13 14:01:15 32° 321° (NW) 14:04:17 145.800 FM
Oscar 10/S400 23 Oct 14:07:14 14:27:44 52° 155° (SSE) 14:50:30 145.825 - 145.975 CW/USB, Beacon 145.810 USB
KITSAT 1 23 Oct 14:17:44 14:24:48 33° 307° (NW) 14:31:55 435.175 FM
Oscar 16 23 Oct 14:18:46 14:23:57 79° 258° (WSW) 14:29:07 437.025 USB, Beacon 2401.1428
AO-Echo 23 Oct 14:27:01 14:31:44 58° 74° (ENE) 14:36:37 ?
Uribyol 2 23 Oct 14:35:30 14:40:37 61° 74° (ENE) 14:45:46 436.500 FM
ITAMSAT 1 23 Oct 14:41:06 14:46:14 65° 74° (ENE) 14:51:24 435.822 SSB
Gurwin Techsat 1B 23 Oct 14:51:58 14:56:53 40° 72° (ENE) 15:01:50 435.225 FM
TMSAT-1 23 Oct 15:04:18 15:09:10 39° 72° (ENE) 15:14:03 436.925 FM
UOSAT-12 23 Oct 15:11:18 15:15:50 67° 116° (ESE) 15:20:30 437.025 FM, 437.400 FM
Oscar 19 23 Oct 15:13:57 15:17:54 22° 264° (W) 15:21:52 437.125 CW, 437.150 USB
Sapphire 23 Oct 15:16:52 15:21:50 38° 251° (WSW) 15:26:47 437.095 MHz 1200 baud AX-25 AFSK
AO-27 23 Oct 15:26:37 15:31:30 42° 261° (W) 15:36:27 436.795 MHz FM
PCSat 23 Oct 15:40:26 15:44:23 21° 254° (WSW) 15:48:18 145.825 MHz
JAS-1B 23 Oct 15:41:48 15:46:11 20° 263° (W) 15:50:20 435.800 - 435.900 CW/SSB
AO-Echo 23 Oct 16:09:23 16:10:52 11° 269° (W) 16:12:21 ?
Uosat F 23 Oct 16:11:32 16:15:27 24° 68° (ENE) 16:19:23 435.120 FM
Uribyol 2 23 Oct 16:18:18 16:20:24 12° 267° (W) 16:22:30 436.500 FM
AO-7 23 Oct 16:21:52 16:29:54 58° 68° (ENE) 16:37:57 29.400 - 29.500 MHz
ITAMSAT 1 23 Oct 16:24:26 16:26:05 11° 268° (W) 16:27:43 435.822 SSB
Gurwin Techsat 1B 23 Oct 16:33:10 16:36:56 20° 265° (W) 16:40:43 435.225 FM
TMSAT-1 23 Oct 16:45:16 16:49:08 21° 265° (W) 16:53:02 436.925 FM
UOSAT-12 23 Oct 16:54:19 16:56:26 13° 312° (NW) 16:58:35 437.025 FM, 437.400 FM
Saudisat 1A 23 Oct 16:56:51 17:00:12 21° 53° (NE) 17:03:32 436.775 MHz
JAS-2 23 Oct 17:11:14 17:15:45 24° 65° (ENE) 17:20:42 435.800 - 435.900 CW/SSB, 435.910 FM
Uosat F 23 Oct 17:49:36 17:54:01 31° 262° (W) 17:58:28 435.120 FM
OPAL 23 Oct 17:52:01 17:56:10 26° 99° (E) 18:00:16 ?
AO-7 23 Oct 18:16:27 18:22:57 26° 263° (W) 18:29:30 29.400 - 29.500 MHz
Hamsat 23 Oct 18:20:07 18:24:18 65° 76° (ENE) 18:28:28 145.90 MHz
Saudisat 1A 23 Oct 18:35:51 18:39:47 32° 248° (WSW) 18:43:42 436.775 MHz
JAS-2 23 Oct 18:55:06 19:00:25 41° 263° (W) 19:06:23 435.800 - 435.900 CW/SSB, 435.910 FM
SO-67 23 Oct 18:59:35 19:01:47 16° 72° (ENE) 19:04:00 435.3500 MHz FM
OPAL 23 Oct 19:30:47 19:34:56 27° 292° (WNW) 19:39:03 ?
STRAND 1 23 Oct 19:33:49 19:38:26 33° 98° (E) 19:43:00 ?
KITSAT 1 23 Oct 20:22:49 20:25:26 12° 38° (NE) 20:28:03 435.175 FM
HO-68 23 Oct 20:29:54 20:35:44 28° 64° (ENE) 20:41:34 435.675 MHz FM
ISS 23 Oct 20:30:21 20:33:21 30° 39° (NE) 20:36:19 145.800 FM
SO-67 23 Oct 20:32:04 20:34:35 19° 264° (W) 20:37:07 435.3500 MHz FM
STRAND 1 23 Oct 21:13:21 21:17:23 24° 292° (WNW) 21:21:24 ?
UKube-1 23 Oct 21:24:55 21:27:58 19° 69° (ENE) 21:31:01 145.840 MHz, 145.915 MHz
FUNcube-1 23 Oct 22:02:05 22:05:16 19° 69° (ENE) 22:08:25 145.950 - 145.970 MHz USB
Oscar 11 23 Oct 22:06:17 22:10:28 51° 75° (ENE) 22:14:40 145.825 FM, Beacon 2401.500 USB
ISS 23 Oct 22:07:27 22:09:52 19° 232° (SW) 22:12:16 145.800 FM
RS-15 23 Oct 22:11:02 22:21:34 51° 110° (ESE) 22:31:54 29.354 - 29.394 USB, Beacon 29.352 USB
KITSAT 1 23 Oct 22:14:43 22:22:40 58° 60° (ENE) 22:30:34 435.175 FM
SO-50 23 Oct 22:15:31 22:19:29 25° 54° (NE) 22:23:29 436.795 FM
HO-68 23 Oct 22:16:14 22:23:03 47° 259° (W) 22:29:55 435.675 MHz FM
ZACube-1 23 Oct 22:51:38 22:56:14 72° 77° (ENE) 23:00:47 437.345 MHz
UKube-1 23 Oct 23:00:07 23:03:54 29° 262° (W) 23:07:43 145.840 MHz, 145.915 MHz
